User: anonymous   Login
Location: Nitra
(48.3167°N, 18.0833°E)
Time: 03:44:24
(UTC+01:00)
Language:

STARLINK-1751 - Orbit

View from above orbital plane
View from above orbital plane
View from above satellite
View from above satellite

Ground track
Ground track

The orbit data is extracted from the following two-line orbital elements,

1 46378U 20062BF  20335.83336806 -.00051007  00000-0 -55405-3 0  9995
2 46378  52.9983 356.0530 0001762  29.8177 318.9429 15.62781263 14662
Epoch (UTC): 30 November 2020 20:00:03
Eccentricity: 0.0001762
inclination: 52.9983°
perigee height: 378 km
apogee height: 381 km
right ascension of ascending node: 356.0530°
argument of perigee: 29.8177°
revolutions per day: 15.62781263
mean anomaly at epoch: 318.9429°
orbit number at epoch: 1466

The dashed part of the orbit path shows where the satellite is in the earth's shadow,  

DLR